When you browse on this site, cookies collect data to enhance your experience and personalize the content and advertising you see.
Visit our Privacy Policy to learn more. By continuing to use the site, you agree to this use of cookies and data.
  • In Latvia
  • List of Countries
  • For 7 days
  • Water Temperature
  • Satellite Maps
  • Weather Map
  • Weather Widgets
  • user-avatar
    Login

    Hourly Weather Le Chatelard

    Today, 19 July, Friday

    Time Temperature Precipitation Wind Pressure Humidity
    00:00 +16°C° 0 mm 1 mps 704 mmHg 86%
    01:00 +16°C° 0 mm 1 mps 704 mmHg 88%
    02:00 +15°C° 0 mm 1 mps 704 mmHg 89%
    03:00 +15°C° 0 mm 1 mps 704 mmHg 90%
    04:00 +16°C° 0 mm 1 mps 704 mmHg 88%
    05:00 +18°C° 0 mm 1 mps 704 mmHg 85%
    06:00 +18°C° 0 mm 0 mps 705 mmHg 79%
    07:00 +20°C° 0 mm 0 mps 705 mmHg 72%
    08:00 +24°C° 0 mm 1 mps 705 mmHg 65%
    09:00 +26°C° 0 mm 1 mps 705 mmHg 58%
    10:00 +26°C° 0 mm 1 mps 705 mmHg 54%
    11:00 +27°C° 0 mm 1 mps 705 mmHg 51%
    12:00 +28°C° 0 mm 2 mps 705 mmHg 48%
    13:00 +28°C° 0 mm 2 mps 705 mmHg 48%
    14:00 +28°C° 0 mm 2 mps 705 mmHg 48%
    15:00 +28°C° 0 mm 1 mps 704 mmHg 49%
    16:00 +27°C° 0.1 mm 1 mps 704 mmHg 56%
    17:00 +26°C° 0.1 mm 1 mps 704 mmHg 63%
    18:00 +22°C° 0.1 mm 0 mps 704 mmHg 70%
    19:00 +23°C° 0 mm 1 mps 704 mmHg 74%
    20:00 +21°C° 0 mm 1 mps 704 mmHg 78%
    21:00 +19°C° 0 mm 1 mps 704 mmHg 81%
    22:00 +19°C° 0 mm 1 mps 704 mmHg 82%
    23:00 +19°C° 0 mm 1 mps 704 mmHg 83%

    Tomorrow, 20 July, Saturday

    Time Temperature Precipitation Wind Pressure Humidity
    00:00 +18°C° 0 mm 1 mps 704 mmHg 83%
    01:00 +18°C° 0 mm 1 mps 704 mmHg 84%
    02:00 +18°C° 0 mm 1 mps 704 mmHg 84%
    03:00 +18°C° 0 mm 1 mps 703 mmHg 84%
    04:00 +19°C° 0 mm 1 mps 704 mmHg 81%
    05:00 +20°C° 0 mm 1 mps 704 mmHg 78%
    06:00 +21°C° 0 mm 1 mps 704 mmHg 75%
    07:00 +23°C° 0 mm 1 mps 705 mmHg 67%
    08:00 +25°C° 0 mm 1 mps 705 mmHg 60%
    09:00 +28°C° 0 mm 1 mps 705 mmHg 52%
    10:00 +28°C° 0 mm 2 mps 705 mmHg 48%
    11:00 +29°C° 0 mm 2 mps 705 mmHg 44%
    12:00 +30°C° 0 mm 2 mps 705 mmHg 40%
    13:00 +30°C° 0 mm 2 mps 705 mmHg 41%
    14:00 +30°C° 0 mm 2 mps 705 mmHg 41%
    15:00 +30°C° 0 mm 2 mps 705 mmHg 42%
    16:00 +28°C° 0 mm 2 mps 705 mmHg 50%
    17:00 +27°C° 0 mm 1 mps 705 mmHg 58%
    18:00 +26°C° 0 mm 1 mps 706 mmHg 67%
    19:00 +24°C° 0.1 mm 1 mps 706 mmHg 71%
    20:00 +21°C° 0.1 mm 2 mps 706 mmHg 76%
    21:00 +20°C° 0.1 mm 2 mps 706 mmHg 80%
    22:00 +19°C° 0.3 mm 2 mps 706 mmHg 82%
    23:00 +19°C° 0.3 mm 2 mps 707 mmHg 83%

    Day after tomorrow, 21 July, Sunday

    Time Temperature Precipitation Wind Pressure Humidity
    00:00 +20°C° 0.3 mm 1 mps 707 mmHg 84%
    01:00 +19°C° 0.1 mm 1 mps 707 mmHg 85%
    02:00 +19°C° 0.1 mm 1 mps 707 mmHg 86%
    03:00 +19°C° 0.1 mm 1 mps 707 mmHg 87%
    04:00 +20°C° 0 mm 1 mps 707 mmHg 86%
    05:00 +21°C° 0 mm 1 mps 707 mmHg 84%
    06:00 +22°C° 0 mm 1 mps 708 mmHg 83%
    07:00 +24°C° 0.1 mm 1 mps 708 mmHg 76%
    08:00 +25°C° 0.1 mm 1 mps 708 mmHg 70%
    09:00 +27°C° 0.1 mm 1 mps 709 mmHg 63%
    10:00 +28°C° 0.3 mm 1 mps 709 mmHg 59%
    11:00 +29°C° 0.3 mm 1 mps 709 mmHg 55%
    12:00 +30°C° 0.3 mm 2 mps 709 mmHg 51%
    13:00 +30°C° 0.2 mm 2 mps 709 mmHg 52%
    14:00 +30°C° 0.2 mm 2 mps 709 mmHg 54%
    15:00 +30°C° 0.2 mm 2 mps 709 mmHg 55%
    16:00 +28°C° 0.3 mm 1 mps 709 mmHg 65%
    17:00 +27°C° 0.3 mm 1 mps 709 mmHg 75%
    18:00 +25°C° 0.3 mm 1 mps 708 mmHg 85%
    19:00 +24°C° 0.1 mm 1 mps 709 mmHg 86%
    20:00 +22°C° 0.1 mm 1 mps 709 mmHg 88%
    21:00 +21°C° 0.1 mm 1 mps 709 mmHg 90%
    22:00 +21°C° 0 mm 1 mps 709 mmHg 90%
    23:00 +20°C° 0 mm 1 mps 709 mmHg 89%

    22 July, Monday

    Time Temperature Precipitation Wind Pressure Humidity
    00:00 +20°C° 0 mm 1 mps 709 mmHg 89%
    01:00 +20°C° 0 mm 1 mps 709 mmHg 89%
    02:00 +20°C° 0 mm 1 mps 709 mmHg 89%
    03:00 +19°C° 0 mm 1 mps 709 mmHg 89%
    04:00 +21°C° 0 mm 1 mps 709 mmHg 87%
    05:00 +22°C° 0 mm 1 mps 709 mmHg 85%
    06:00 +23°C° 0 mm 1 mps 710 mmHg 84%
    07:00 +25°C° 0 mm 1 mps 710 mmHg 75%
    08:00 +27°C° 0 mm 1 mps 710 mmHg 67%
    09:00 +29°C° 0 mm 1 mps 710 mmHg 59%
    10:00 +30°C° 0 mm 1 mps 710 mmHg 55%
    11:00 +31°C° 0 mm 1 mps 710 mmHg 52%
    12:00 +32°C° 0 mm 2 mps 710 mmHg 48%
    13:00 +32°C° 0 mm 2 mps 709 mmHg 48%
    14:00 +32°C° 0 mm 2 mps 709 mmHg 47%
    15:00 +32°C° 0 mm 1 mps 709 mmHg 47%
    16:00 +30°C° 0 mm 1 mps 709 mmHg 55%
    17:00 +29°C° 0 mm 1 mps 709 mmHg 64%
    18:00 +27°C° 0 mm 1 mps 709 mmHg 72%
    19:00 +26°C° 0 mm 1 mps 709 mmHg 75%
    20:00 +24°C° 0 mm 1 mps 709 mmHg 78%
    21:00 +23°C° 0 mm 1 mps 709 mmHg 81%
    22:00 +22°C° 0 mm 1 mps 709 mmHg 82%
    23:00 +22°C° 0 mm 1 mps 708 mmHg 83%

    23 July, Tuesday

    Time Temperature Precipitation Wind Pressure Humidity
    00:00 +21°C° 0 mm 1 mps 708 mmHg 84%
    01:00 +21°C° 0 mm 1 mps 708 mmHg 84%
    02:00 +21°C° 0 mm 1 mps 708 mmHg 84%
    03:00 +21°C° 0 mm 1 mps 708 mmHg 84%
    04:00 +22°C° 0 mm 1 mps 708 mmHg 81%
    05:00 +23°C° 0 mm 1 mps 708 mmHg 78%
    06:00 +24°C° 0 mm 1 mps 708 mmHg 75%
    07:00 +26°C° 0 mm 1 mps 708 mmHg 67%
    08:00 +28°C° 0 mm 1 mps 708 mmHg 59%
    09:00 +31°C° 0 mm 1 mps 708 mmHg 51%
    10:00 +31°C° 0 mm 1 mps 708 mmHg 48%
    11:00 +32°C° 0 mm 1 mps 708 mmHg 45%
    12:00 +33°C° 0 mm 1 mps 708 mmHg 42%
    13:00 +33°C° 0 mm 1 mps 708 mmHg 42%
    14:00 +33°C° 0 mm 1 mps 708 mmHg 42%
    15:00 +33°C° 0 mm 1 mps 707 mmHg 42%
    16:00 +31°C° 0 mm 1 mps 707 mmHg 51%
    17:00 +29°C° 0 mm 1 mps 707 mmHg 59%
    18:00 +28°C° 0 mm 1 mps 707 mmHg 67%
    19:00 +26°C° 0 mm 1 mps 707 mmHg 70%
    20:00 +25°C° 0 mm 1 mps 707 mmHg 74%
    21:00 +23°C° 0 mm 1 mps 707 mmHg 77%
    22:00 +23°C° 0 mm 1 mps 707 mmHg 78%
    23:00 +22°C° 0 mm 1 mps 707 mmHg 79%

    24 July, Wednesday

    Time Temperature Precipitation Wind Pressure Humidity
    00:00 +22°C° 0 mm 1 mps 707 mmHg 79%
    01:00 +22°C° 0 mm 1 mps 707 mmHg 79%
    02:00 +21°C° 0 mm 1 mps 707 mmHg 78%
    03:00 +21°C° 0 mm 1 mps 706 mmHg 78%
    04:00 +22°C° 0 mm 1 mps 706 mmHg 76%
    05:00 +23°C° 0 mm 1 mps 707 mmHg 74%
    06:00 +22°C° 0 mm 0 mps 707 mmHg 71%
    07:00 +27°C° 0 mm 1 mps 707 mmHg 64%
    08:00 +29°C° 0 mm 1 mps 707 mmHg 56%
    09:00 +31°C° 0 mm 1 mps 708 mmHg 49%
    10:00 +32°C° 0 mm 1 mps 707 mmHg 45%
    11:00 +33°C° 0 mm 1 mps 707 mmHg 42%
    12:00 +34°C° 0 mm 2 mps 707 mmHg 39%
    13:00 +34°C° 0 mm 2 mps 707 mmHg 40%
    14:00 +34°C° 0 mm 2 mps 707 mmHg 41%
    15:00 +34°C° 0 mm 2 mps 707 mmHg 42%
    16:00 +31°C° 0 mm 2 mps 706 mmHg 50%
    17:00 +30°C° 0 mm 1 mps 706 mmHg 58%
    18:00 +28°C° 0 mm 1 mps 706 mmHg 66%
    19:00 +27°C° 0 mm 1 mps 706 mmHg 69%
    20:00 +25°C° 0 mm 1 mps 706 mmHg 72%
    21:00 +23°C° 0 mm 1 mps 706 mmHg 75%
    22:00 +23°C° 0 mm 1 mps 706 mmHg 76%
    23:00 +23°C° 0 mm 1 mps 706 mmHg 77%
    Show more